Location: Newark
(47.5833°N, 8.1500°E)
Time: 08:48:01
(UTC+00:00)

Vanguard 1 - Pass Details

Date: 30 October 2020
Orbit: 650 x 3833 km, 34.2° (Epoch: 29 November)

Event Time Altitude Azimuth Distance (km) Brightness Sun altitude
Rises 12:18:20 0° 238° (WSW) 7,366 15.2 26.6°
Reaches altitude 10° 12:23:08 10° 234° (SW) 6,597 15.3 26.3°
Maximum altitude 12:44:47 52° 167° (SSE) 4,319 14.3 24.9°
Drops below altitude 10° 13:03:40 10° 98° (E) 5,862 13.9 23.4°
Sets 13:07:36 0° 94° (E) 6,538 14.0 23.1°
